Regional Weather Roundup
Issued by NWS Green Bay, WI

Home | Current Version | Previous Version | Text Only | Print | Product List | Glossary On
Versions: 1 2 3 4 5 6 7 8 9 10 11 12 13 14 15 16 17 18 19 20 21 22 23 24 25 26 27 28 29 30 31 32 33 34 35 36 37 38 39 40 41 42 43 44 45 46 47 48 49 50
000
ASUS43 KGRB 011411
RWRGRB

NORTH-CENTRAL AND NORTHEAST WISCONSIN REGIONAL WEATHER ROUNDUP
NATIONAL WEATHER SERVICE GREEN BAY WI
900 AM CDT SUN MAY 01 2016

WIZ005-009-010>012-018-019-011500-
NORTH CENTRAL WISCONSIN

CITY           SKY/WX    TMP DP  RH WIND       PRES   REMARKS
IRONWOOD         N/A     39  36  87 N6        30.19S
MANITOWISH WTR MOSUNNY   43  37  78 NE6       30.17R
ARBOR VITAE    SUNNY     44  36  72 NE7       30.15S
EAGLE RIVER    MOSUNNY   45  33  62 N6        30.15R
LAND O LAKES   MOSUNNY   43  35  73 NE7       30.17R
RHINELANDER    MOSUNNY   44  34  67 NE7       30.15R
PHILLIPS       MOSUNNY   43  36  76 N9        30.15S
ANTIGO         CLOUDY    44  35  70 NE3       30.13R
TOMAHAWK       CLOUDY    43  34  71 N8        30.15R
MERRILL        CLOUDY    46  36  66 N6        30.13S
$$

WIZ013-073-011500-
NORTHEAST WISCONSIN

CITY           SKY/WX    TMP DP  RH WIND       PRES   REMARKS
IRON MOUNTAIN  MOSUNNY   48  33  56 NE7       30.13R
MARINETTE      CLOUDY    46  34  61 NE8       30.12R
OCONTO         CLOUDY    45  36  71 N8        30.11S
$$

WIZ017-030-035>037-045-011500-
CENTRAL WISCONSIN

CITY           SKY/WX    TMP DP  RH WIND       PRES   REMARKS
MEDFORD        CLOUDY    44  36  73 N9        30.12S
WAUSAU         CLOUDY    48  33  56 NE7       30.11R
MOSINEE        MOSUNNY   45  34  65 NE8       30.12R
MARSHFIELD     CLOUDY    47  35  63 NE9       30.11R
WISC RAPIDS    CLOUDY    46  32  58 NE10      30.12R
STEVENS POINT  CLOUDY    44  32  64 NE8       30.11R
WAUPACA        DRIZZLE   46  37  69 NE6       30.11R
SHAWANO        CLOUDY    47  35  63 NE7       30.12R
CLINTONVILLE   CLOUDY    45  34  65 NE8       30.11R
WAUTOMA        LGT RAIN  45  36  70 NE8       30.10
$$

WIZ038-039-048-051-011500-
FOX VALLEY

CITY           SKY/WX    TMP DP  RH WIND       PRES   REMARKS
NWS GREEN BAY  LGT RAIN  45  39  79 NE10      30.10R
APPLETON       CLOUDY    45  36  70 NE9       30.08R
OSHKOSH        CLOUDY    45  39  79 NE9       30.09R
FOND DU LAC    CLOUDY    45  40  82 NE12      30.08R
$$

WIZ022-050-052-011500-
EAST CENTRAL WISCONSIN

CITY           SKY/WX    TMP DP  RH WIND       PRES   REMARKS
EPHRAIM        PTSUNNY   43  37  79 N6        30.11R
STURGEON BAY   CLOUDY    43  36  75 N8        30.13R
MANITOWOC      CLOUDY    44  38  79 NE12G25   30.09R
SHEBOYGAN      CLOUDY    43  40  89 NE10      30.07S
$$

LMZ563-521-522-541>543-011500-
LAKESHORE

STATION/POSITION TIME  TEMP    WIND        PRES    VSBY  WAVE
                       AIR SEA DIR/SP/G                  HT/PER
                 (UTC) (F)     (DEG/KT/KT) (MB)    (MI)  (FT/S)
SHEBOYGAN LKSHOR 1400   41      10/ 16/ 17 1019.0R
KEWAUNEE LKSHORE 1300   43      20/ 11/ 14 1018.1R
ALGOMA MARINA    1300           20/  8/ 11   N/A
NORTHPORT PIER   1300   45      30/  7/ 11 1019.3S
N MID LAKE BUOY  1350   40 39   50/ 12/ 14 1019.8R         1/ 3
CHAMBERS ISLAND  1300   42     340/  9/ 10 1019.6R
MENOMINEE LKSHOR 1300   44     350/  8/ 10 1018.4R
$$




USA.gov is the U.S. government's official web portal to all federal, state and local government web resources and services.